Location: Praha
(50.0830°N, 14.4670°E)
Time: 11:02:07
(UTC+02:00)

ISS - Pass Details

Date: 30 July 2020
Orbit: 418 x 420 km, 51.6° (Epoch: 13 August)

Event Time Altitude Azimuth Distance (km) Brightness Sun altitude
Rises 21:55:18 0° 287° (WNW) 2,373 1.3 -9.5°
Reaches altitude 10° 21:57:32 10° 277° (W) 1,506 -0.1 -9.8°
Maximum altitude 22:00:34 32° 213° (SSW) 753 -2.6 -10.1°
Enters shadow 22:02:54 15° 155° (SSE) 1,246 -2.0 -10.4°
